Time,TemperatureF,DewpointF,PressureIn,WindDirection,WindDirectionDegrees,WindSpeedMPH,WindSpeedGustMPH,Humidity,HourlyPrecipIn,Conditions,Clouds,dailyrainin,SoftwareType,DateUTC
2013-08-21 00:01:00,76.2,67.3,29.95,SE,135,1.0,2.0,74,0.00,,,0.00,Wunderground v.1.15,2013-08-21 05:01:00,
2013-08-21 00:07:00,76.0,67.1,29.95,ESE,113,2.0,3.0,74,0.00,,,0.00,Wunderground v.1.15,2013-08-21 05:07:00,
2013-08-21 00:13:00,75.9,67.4,29.95,SSE,156,2.0,2.0,75,0.00,,,0.00,Wunderground v.1.15,2013-08-21 05:13:00,
2013-08-21 00:19:00,75.7,67.2,29.95,SE,146,1.0,3.0,75,0.00,,,0.00,Wunderground v.1.15,2013-08-21 05:19:00,
2013-08-21 00:25:00,75.6,67.5,29.95,SE,127,2.0,3.0,76,0.00,,,0.00,Wunderground v.1.15,2013-08-21 05:25:00,
2013-08-21 00:31:00,75.4,67.3,29.95,SSW,198,1.0,2.0,76,0.00,,,0.00,Wunderground v.1.15,2013-08-21 05:31:00,
2013-08-21 00:36:00,75.3,67.2,29.95,SE,132,1.0,4.0,76,0.00,,,0.00,Wunderground v.1.15,2013-08-21 05:36:00,
2013-08-21 00:42:00,75.2,67.1,29.95,SW,220,5.0,5.0,76,0.00,,,0.00,Wunderground v.1.15,2013-08-21 05:42:00,
2013-08-21 00:48:00,75.0,67.3,29.95,SE,134,1.0,2.0,77,0.00,,,0.00,Wunderground v.1.15,2013-08-21 05:48:00,
2013-08-21 00:54:00,74.9,67.2,29.95,ESE,112,2.0,4.0,77,0.00,,,0.00,Wunderground v.1.15,2013-08-21 05:54:00,
2013-08-21 00:59:00,74.8,67.1,29.95,WSW,242,2.0,3.0,77,0.00,,,0.00,Wunderground v.1.15,2013-08-21 05:59:00,
2013-08-21 01:05:00,74.8,67.1,29.95,SSE,165,1.0,3.0,77,0.00,,,0.00,Wunderground v.1.15,2013-08-21 06:05:00,
2013-08-21 01:11:00,74.7,67.0,29.96,SW,222,2.0,2.0,77,0.00,,,0.00,Wunderground v.1.15,2013-08-21 06:11:00,
2013-08-21 01:17:00,74.6,66.9,29.95,SSE,155,2.0,3.0,77,0.00,,,0.00,Wunderground v.1.15,2013-08-21 06:17:00,
2013-08-21 01:23:00,74.5,66.8,29.95,South,178,3.0,3.0,77,0.00,,,0.00,Wunderground v.1.15,2013-08-21 06:23:00,
2013-08-21 01:29:00,74.4,67.1,29.96,South,175,1.0,2.0,78,0.00,,,0.00,Wunderground v.1.15,2013-08-21 06:29:00,
2013-08-21 01:35:00,74.3,67.0,29.96,ENE,78,2.0,2.0,78,0.00,,,0.00,Wunderground v.1.15,2013-08-21 06:35:00,
2013-08-21 01:40:00,74.2,66.9,29.96,South,171,3.0,4.0,78,0.00,,,0.00,Wunderground v.1.15,2013-08-21 06:40:00,
2013-08-21 01:46:00,74.0,66.7,29.96,SW,226,1.0,4.0,78,0.00,,,0.00,Wunderground v.1.15,2013-08-21 06:46:00,
2013-08-21 01:52:00,73.8,66.9,29.96,South,176,2.0,2.0,79,0.00,,,0.00,Wunderground v.1.15,2013-08-21 06:52:00,
2013-08-21 01:58:00,73.7,66.8,29.96,SSE,168,1.0,1.0,79,0.00,,,0.00,Wunderground v.1.15,2013-08-21 06:58:00,
2013-08-21 02:03:00,73.5,66.6,29.96,WSW,256,2.0,3.0,79,0.00,,,0.00,Wunderground v.1.15,2013-08-21 07:03:00,
2013-08-21 02:08:00,73.4,66.5,29.95,SW,218,2.0,2.0,79,0.00,,,0.00,Wunderground v.1.15,2013-08-21 07:08:00,
2013-08-21 02:13:00,73.3,66.4,29.95,SE,141,5.0,5.0,79,0.00,,,0.00,Wunderground v.1.15,2013-08-21 07:13:00,
2013-08-21 02:18:00,73.2,66.7,29.95,SSE,165,2.0,2.0,80,0.00,,,0.00,Wunderground v.1.15,2013-08-21 07:18:00,
2013-08-21 02:23:00,73.2,66.3,29.94,South,169,2.0,7.0,79,0.00,,,0.00,Wunderground v.1.15,2013-08-21 07:23:00,
2013-08-21 02:28:00,73.2,66.3,29.95,WSW,239,6.0,6.0,79,0.00,,,0.00,Wunderground v.1.15,2013-08-21 07:28:00,
2013-08-21 02:33:00,73.2,66.3,29.94,South,190,2.0,6.0,79,0.00,,,0.00,Wunderground v.1.15,2013-08-21 07:33:00,
2013-08-21 02:38:00,73.1,66.2,29.94,ESE,123,2.0,3.0,79,0.00,,,0.00,Wunderground v.1.15,2013-08-21 07:38:00,
2013-08-21 02:43:00,73.1,66.2,29.95,SSE,150,2.0,6.0,79,0.00,,,0.00,Wunderground v.1.15,2013-08-21 07:43:00,
2013-08-21 02:48:00,73.0,66.1,29.94,SSE,148,2.0,3.0,79,0.00,,,0.00,Wunderground v.1.15,2013-08-21 07:48:00,
2013-08-21 02:53:00,73.0,66.1,29.94,SSE,161,2.0,7.0,79,0.00,,,0.00,Wunderground v.1.15,2013-08-21 07:53:00,
2013-08-21 02:58:00,73.0,66.1,29.94,SE,142,2.0,3.0,79,0.00,,,0.00,Wunderground v.1.15,2013-08-21 07:58:00,
2013-08-21 03:03:00,72.9,66.0,29.94,South,190,3.0,5.0,79,0.00,,,0.00,Wunderground v.1.15,2013-08-21 08:03:00,
2013-08-21 03:08:00,72.9,66.0,29.94,SW,230,2.0,3.0,79,0.00,,,0.00,Wunderground v.1.15,2013-08-21 08:08:00,
2013-08-21 03:13:00,72.8,65.9,29.94,SSE,163,2.0,5.0,79,0.00,,,0.00,Wunderground v.1.15,2013-08-21 08:13:00,
2013-08-21 03:18:00,72.7,65.8,29.94,SSE,154,3.0,3.0,79,0.00,,,0.00,Wunderground v.1.15,2013-08-21 08:18:00,
2013-08-21 03:23:00,72.6,65.7,29.94,SW,229,3.0,7.0,79,0.00,,,0.00,Wunderground v.1.15,2013-08-21 08:23:00,
2013-08-21 03:28:00,72.5,65.6,29.94,South,186,1.0,2.0,79,0.00,,,0.00,Wunderground v.1.15,2013-08-21 08:28:00,
2013-08-21 03:33:00,72.4,65.5,29.94,SSW,204,5.0,5.0,79,0.00,,,0.00,Wunderground v.1.15,2013-08-21 08:33:00,
2013-08-21 03:38:00,72.4,65.5,29.94,SE,130,2.0,3.0,79,0.00,,,0.00,Wunderground v.1.15,2013-08-21 08:38:00,
2013-08-21 03:43:00,72.4,65.5,29.94,SE,124,4.0,6.0,79,0.00,,,0.00,Wunderground v.1.15,2013-08-21 08:43:00,
2013-08-21 03:48:00,72.3,65.4,29.93,SE,126,2.0,2.0,79,0.00,,,0.00,Wunderground v.1.15,2013-08-21 08:48:00,
2013-08-21 03:53:00,72.2,65.3,29.94,SSW,200,2.0,5.0,79,0.00,,,0.00,Wunderground v.1.15,2013-08-21 08:53:00,
2013-08-21 03:58:00,72.1,65.2,29.94,SSE,156,2.0,3.0,79,0.00,,,0.00,Wunderground v.1.15,2013-08-21 08:58:00,
2013-08-21 04:03:00,72.1,65.2,29.94,SSE,147,2.0,5.0,79,0.00,,,0.00,Wunderground v.1.15,2013-08-21 09:03:00,
2013-08-21 04:08:00,72.1,65.2,29.94,WSW,242,2.0,5.0,79,0.00,,,0.00,Wunderground v.1.15,2013-08-21 09:08:00,
2013-08-21 04:13:00,72.1,65.2,29.94,ESE,114,1.0,5.0,79,0.00,,,0.00,Wunderground v.1.15,2013-08-21 09:13:00,
2013-08-21 04:18:00,72.1,65.2,29.94,SW,225,1.0,2.0,79,0.00,,,0.00,Wunderground v.1.15,2013-08-21 09:18:00,
2013-08-21 04:23:00,72.1,65.2,29.94,ESE,115,2.0,7.0,79,0.00,,,0.00,Wunderground v.1.15,2013-08-21 09:23:00,
2013-08-21 04:28:00,72.1,65.2,29.94,South,184,2.0,2.0,79,0.00,,,0.00,Wunderground v.1.15,2013-08-21 09:28:00,
2013-08-21 04:33:00,72.1,65.2,29.94,ESE,123,2.0,5.0,79,0.00,,,0.00,Wunderground v.1.15,2013-08-21 09:33:00,
2013-08-21 04:38:00,72.0,65.1,29.94,SE,135,2.0,2.0,79,0.00,,,0.00,Wunderground v.1.15,2013-08-21 09:38:00,
2013-08-21 04:43:00,72.0,64.8,29.94,SSE,167,2.0,5.0,78,0.00,,,0.00,Wunderground v.1.15,2013-08-21 09:43:00,
2013-08-21 04:48:00,71.9,64.7,29.93,SE,130,2.0,3.0,78,0.00,,,0.00,Wunderground v.1.15,2013-08-21 09:48:00,
2013-08-21 04:53:00,71.9,64.7,29.93,North,5,2.0,3.0,78,0.00,,,0.00,Wunderground v.1.15,2013-08-21 09:53:00,
2013-08-21 04:58:00,71.8,64.6,29.93,South,178,1.0,2.0,78,0.00,,,0.00,Wunderground v.1.15,2013-08-21 09:58:00,
2013-08-21 05:03:00,71.8,64.6,29.93,South,171,2.0,5.0,78,0.00,,,0.00,Wunderground v.1.15,2013-08-21 10:03:00,
2013-08-21 05:08:00,71.9,64.7,29.94,SE,140,2.0,3.0,78,0.00,,,0.00,Wunderground v.1.15,2013-08-21 10:08:00,
2013-08-21 05:13:00,71.9,64.7,29.94,SSW,213,1.0,4.0,78,0.00,,,0.00,Wunderground v.1.15,2013-08-21 10:13:00,
2013-08-21 05:18:00,71.8,64.2,29.94,SSE,159,1.0,2.0,77,0.00,,,0.00,Wunderground v.1.15,2013-08-21 10:18:00,
2013-08-21 05:23:00,71.8,64.2,29.94,SSE,163,1.0,4.0,77,0.00,,,0.00,Wunderground v.1.15,2013-08-21 10:23:00,
2013-08-21 05:28:00,71.8,64.2,29.94,SSE,153,2.0,3.0,77,0.00,,,0.00,Wunderground v.1.15,2013-08-21 10:28:00,
2013-08-21 05:33:00,71.8,64.2,29.94,SSE,148,3.0,3.0,77,0.00,,,0.00,Wunderground v.1.15,2013-08-21 10:33:00,
2013-08-21 05:38:00,71.9,63.9,29.94,SW,228,2.0,3.0,76,0.00,,,0.00,Wunderground v.1.15,2013-08-21 10:38:00,
2013-08-21 05:43:00,71.9,63.9,29.94,ESE,106,1.0,3.0,76,0.00,,,0.00,Wunderground v.1.15,2013-08-21 10:43:00,
2013-08-21 05:48:00,72.0,63.6,29.94,SW,229,2.0,5.0,75,0.00,,,0.00,Wunderground v.1.15,2013-08-21 10:48:00,
2013-08-21 05:53:00,72.1,63.4,29.94,SE,143,2.0,5.0,74,0.00,,,0.00,Wunderground v.1.15,2013-08-21 10:53:00,
2013-08-21 05:58:00,72.2,63.4,29.95,SE,127,1.0,2.0,74,0.00,,,0.00,Wunderground v.1.15,2013-08-21 10:58:00,
2013-08-21 06:03:00,72.2,63.1,29.95,SSE,159,1.0,4.0,73,0.00,,,0.00,Wunderground v.1.15,2013-08-21 11:03:00,
2013-08-21 06:08:00,72.3,63.2,29.95,SW,215,1.0,1.0,73,0.00,,,0.00,Wunderground v.1.15,2013-08-21 11:08:00,
2013-08-21 06:13:00,72.3,63.2,29.95,WSW,246,1.0,3.0,73,0.00,,,0.00,Wunderground v.1.15,2013-08-21 11:13:00,
2013-08-21 06:18:00,72.4,63.3,29.95,East,94,3.0,5.0,73,0.00,,,0.00,Wunderground v.1.15,2013-08-21 11:18:00,
2013-08-21 06:23:00,72.5,63.4,29.96,East,92,1.0,5.0,73,0.00,,,0.00,Wunderground v.1.15,2013-08-21 11:23:00,
2013-08-21 06:28:00,72.5,63.0,29.96,SSW,208,2.0,2.0,72,0.00,,,0.00,Wunderground v.1.15,2013-08-21 11:28:00,
2013-08-21 06:33:00,72.6,63.4,29.96,East,94,2.0,3.0,73,0.00,,,0.00,Wunderground v.1.15,2013-08-21 11:33:00,
2013-08-21 06:38:00,72.6,63.4,29.96,SE,138,2.0,2.0,73,0.00,,,0.00,Wunderground v.1.15,2013-08-21 11:38:00,
2013-08-21 06:43:00,72.6,63.4,29.96,WSW,242,2.0,4.0,73,0.00,,,0.00,Wunderground v.1.15,2013-08-21 11:43:00,
2013-08-21 06:48:00,72.7,63.5,29.96,SSE,147,1.0,2.0,73,0.00,,,0.00,Wunderground v.1.15,2013-08-21 11:48:00,
2013-08-21 06:53:00,72.6,63.4,29.97,SE,146,1.0,2.0,73,0.00,,,0.00,Wunderground v.1.15,2013-08-21 11:53:00,
2013-08-21 06:58:00,72.5,63.4,29.97,ESE,120,0.0,1.0,73,0.00,,,0.00,Wunderground v.1.15,2013-08-21 11:58:00,
2013-08-21 07:03:00,72.5,63.7,29.97,SE,135,3.0,4.0,74,0.00,,,0.00,Wunderground v.1.15,2013-08-21 12:03:00,
2013-08-21 07:09:00,72.6,63.4,29.97,SSE,150,1.0,2.0,73,0.00,,,0.00,Wunderground v.1.15,2013-08-21 12:09:00,
2013-08-21 07:14:00,72.6,63.8,29.97,SSE,166,1.0,2.0,74,0.00,,,0.00,Wunderground v.1.15,2013-08-21 12:14:00,
2013-08-21 07:19:00,72.5,63.7,29.97,ESE,123,1.0,1.0,74,0.00,,,0.00,Wunderground v.1.15,2013-08-21 12:19:00,
2013-08-21 07:24:00,72.4,64.0,29.97,ESE,123,0.0,1.0,75,0.00,,,0.00,Wunderground v.1.15,2013-08-21 12:24:00,
2013-08-21 07:29:00,72.3,63.9,29.97,ESE,123,0.0,1.0,75,0.00,,,0.00,Wunderground v.1.15,2013-08-21 12:29:00,
2013-08-21 07:34:00,72.2,64.2,29.97,ESE,123,0.0,2.0,76,0.00,,,0.00,Wunderground v.1.15,2013-08-21 12:34:00,
2013-08-21 07:39:00,72.0,64.0,29.97,ESE,123,0.0,2.0,76,0.00,,,0.00,Wunderground v.1.15,2013-08-21 12:39:00,
2013-08-21 07:44:00,72.0,64.4,29.98,ESE,123,0.0,2.0,77,0.00,,,0.00,Wunderground v.1.15,2013-08-21 12:44:00,
2013-08-21 07:49:00,72.1,64.1,29.98,ESE,123,1.0,1.0,76,0.00,,,0.00,Wunderground v.1.15,2013-08-21 12:49:00,
2013-08-21 07:54:00,72.5,64.5,29.98,ESE,123,0.0,2.0,76,0.00,,,0.00,Wunderground v.1.15,2013-08-21 12:54:00,
2013-08-21 07:59:00,72.8,64.8,29.98,ESE,123,0.0,1.0,76,0.00,,,0.00,Wunderground v.1.15,2013-08-21 12:59:00,
2013-08-21 08:04:00,73.2,64.8,29.98,ESE,123,2.0,2.0,75,0.00,,,0.00,Wunderground v.1.15,2013-08-21 13:04:00,
2013-08-21 08:09:00,73.6,65.2,29.98,East,89,2.0,2.0,75,0.00,,,0.00,Wunderground v.1.15,2013-08-21 13:09:00,
2013-08-21 08:14:00,74.1,65.3,29.98,SSW,202,2.0,2.0,74,0.00,,,0.00,Wunderground v.1.15,2013-08-21 13:14:00,
2013-08-21 08:19:00,74.6,65.4,29.98,SSE,159,0.0,1.0,73,0.00,,,0.00,Wunderground v.1.15,2013-08-21 13:19:00,
2013-08-21 08:24:00,74.9,65.7,29.98,SSW,193,2.0,3.0,73,0.00,,,0.00,Wunderground v.1.15,2013-08-21 13:24:00,
2013-08-21 08:29:00,75.3,65.6,29.98,SSE,167,1.0,2.0,72,0.00,,,0.00,Wunderground v.1.15,2013-08-21 13:29:00,
2013-08-21 08:34:00,75.7,66.0,29.98,SSE,153,1.0,3.0,72,0.00,,,0.00,Wunderground v.1.15,2013-08-21 13:34:00,
2013-08-21 08:39:00,76.2,66.1,29.98,SSE,157,0.0,1.0,71,0.00,,,0.00,Wunderground v.1.15,2013-08-21 13:39:00,
2013-08-21 08:44:00,76.8,66.3,29.98,SE,133,0.0,2.0,70,0.00,,,0.00,Wunderground v.1.15,2013-08-21 13:44:00,
2013-08-21 08:49:00,77.3,66.7,29.98,ESE,121,2.0,2.0,70,0.00,,,0.00,Wunderground v.1.15,2013-08-21 13:49:00,
2013-08-21 08:54:00,77.7,66.3,29.98,SSE,155,3.0,5.0,68,0.00,,,0.00,Wunderground v.1.15,2013-08-21 13:54:00,
2013-08-21 08:59:00,77.9,66.5,29.98,South,172,0.0,2.0,68,0.00,,,0.00,Wunderground v.1.15,2013-08-21 13:59:00,
2013-08-21 09:04:00,78.5,67.1,29.98,SW,223,3.0,4.0,68,0.00,,,0.00,Wunderground v.1.15,2013-08-21 14:04:00,
2013-08-21 09:09:00,78.8,66.9,29.98,ESE,116,2.0,3.0,67,0.00,,,0.00,Wunderground v.1.15,2013-08-21 14:09:00,
2013-08-21 09:14:00,79.0,67.1,29.98,SW,221,3.0,4.0,67,0.00,,,0.00,Wunderground v.1.15,2013-08-21 14:14:00,
2013-08-21 09:19:00,79.4,67.5,29.98,ESE,115,0.0,1.0,67,0.00,,,0.00,Wunderground v.1.15,2013-08-21 14:19:00,
2013-08-21 09:24:00,80.0,67.2,29.98,SW,225,4.0,4.0,65,0.00,,,0.00,Wunderground v.1.15,2013-08-21 14:24:00,
2013-08-21 09:29:00,80.3,67.5,29.98,SSE,152,3.0,3.0,65,0.00,,,0.00,Wunderground v.1.15,2013-08-21 14:29:00,
2013-08-21 09:34:00,80.6,67.3,29.98,SE,131,1.0,3.0,64,0.00,,,0.00,Wunderground v.1.15,2013-08-21 14:34:00,
2013-08-21 09:39:00,81.1,67.8,29.98,SSE,150,1.0,3.0,64,0.00,,,0.00,Wunderground v.1.15,2013-08-21 14:39:00,
2013-08-21 09:43:00,81.3,68.4,29.98,ESE,119,2.0,4.0,65,0.00,,,0.00,Wunderground v.1.15,2013-08-21 14:43:00,
2013-08-21 09:49:00,81.5,66.8,29.98,SSE,157,2.0,3.0,61,0.00,,,0.00,Wunderground v.1.15,2013-08-21 14:49:00,
2013-08-21 09:53:00,81.6,67.8,29.98,East,98,2.0,3.0,63,0.00,,,0.00,Wunderground v.1.15,2013-08-21 14:53:00,
2013-08-21 09:58:00,81.7,67.9,29.98,SE,128,0.0,2.0,63,0.00,,,0.00,Wunderground v.1.15,2013-08-21 14:58:00,
2013-08-21 10:04:00,82.3,68.4,29.98,SE,144,2.0,3.0,63,0.00,,,0.00,Wunderground v.1.15,2013-08-21 15:04:00,
2013-08-21 10:09:00,82.9,68.5,29.99,ESE,118,0.0,1.0,62,0.00,,,0.00,Wunderground v.1.15,2013-08-21 15:09:00,
2013-08-21 10:14:00,83.3,67.5,29.99,SW,214,2.0,5.0,59,0.00,,,0.00,Wunderground v.1.15,2013-08-21 15:14:00,
2013-08-21 10:19:00,83.0,67.2,29.99,SE,129,3.0,3.0,59,0.00,,,0.00,Wunderground v.1.15,2013-08-21 15:19:00,
2013-08-21 10:24:00,82.5,68.2,29.99,South,184,2.0,7.0,62,0.00,,,0.00,Wunderground v.1.15,2013-08-21 15:24:00,
2013-08-21 10:29:00,82.5,67.7,29.99,SE,146,2.0,3.0,61,0.00,,,0.00,Wunderground v.1.15,2013-08-21 15:29:00,
2013-08-21 10:34:00,82.7,67.4,29.99,ESE,115,7.0,7.0,60,0.00,,,0.00,Wunderground v.1.15,2013-08-21 15:34:00,
2013-08-21 10:39:00,82.8,68.0,29.98,South,176,1.0,3.0,61,0.00,,,0.00,Wunderground v.1.15,2013-08-21 15:39:00,
2013-08-21 10:44:00,83.2,68.3,29.99,SW,225,3.0,5.0,61,0.00,,,0.00,Wunderground v.1.15,2013-08-21 15:44:00,
2013-08-21 10:49:00,83.6,68.2,29.98,South,171,2.0,7.0,60,0.00,,,0.00,Wunderground v.1.15,2013-08-21 15:49:00,
2013-08-21 10:54:00,83.7,68.3,29.98,SSE,155,3.0,7.0,60,0.00,,,0.00,Wunderground v.1.15,2013-08-21 15:54:00,
2013-08-21 10:59:00,84.0,68.6,29.99,SE,143,2.0,2.0,60,0.00,,,0.00,Wunderground v.1.15,2013-08-21 15:59:00,
2013-08-21 11:04:00,84.5,68.6,29.98,SE,142,3.0,5.0,59,0.00,,,0.00,Wunderground v.1.15,2013-08-21 16:04:00,
2013-08-21 11:09:00,84.8,68.4,29.99,South,177,4.0,5.0,58,0.00,,,0.00,Wunderground v.1.15,2013-08-21 16:09:00,
2013-08-21 11:14:00,84.7,67.8,29.99,ESE,102,4.0,7.0,57,0.00,,,0.00,Wunderground v.1.15,2013-08-21 16:14:00,
2013-08-21 11:19:00,84.5,68.6,29.99,SSE,147,3.0,6.0,59,0.00,,,0.00,Wunderground v.1.15,2013-08-21 16:19:00,
2013-08-21 11:24:00,84.4,68.5,29.99,East,80,7.0,7.0,59,0.00,,,0.00,Wunderground v.1.15,2013-08-21 16:24:00,
2013-08-21 11:29:00,84.6,69.2,29.98,ESE,113,3.0,4.0,60,0.00,,,0.00,Wunderground v.1.15,2013-08-21 16:29:00,
2013-08-21 11:34:00,85.0,69.1,29.98,SSE,163,2.0,6.0,59,0.00,,,0.00,Wunderground v.1.15,2013-08-21 16:34:00,
2013-08-21 11:39:00,85.2,68.2,29.98,ENE,69,1.0,4.0,57,0.00,,,0.00,Wunderground v.1.15,2013-08-21 16:39:00,
2013-08-21 11:44:00,85.3,68.3,29.98,WSW,248,2.0,5.0,57,0.00,,,0.00,Wunderground v.1.15,2013-08-21 16:44:00,
2013-08-21 11:49:00,85.5,68.0,29.99,SE,144,1.0,6.0,56,0.00,,,0.00,Wunderground v.1.15,2013-08-21 16:49:00,
2013-08-21 11:54:00,85.7,68.7,29.98,South,182,3.0,7.0,57,0.00,,,0.00,Wunderground v.1.15,2013-08-21 16:54:00,
2013-08-21 11:59:00,86.0,67.4,29.98,South,171,2.0,3.0,54,0.00,,,0.00,Wunderground v.1.15,2013-08-21 16:59:00,
2013-08-21 12:04:00,86.3,67.7,29.98,SE,128,2.0,7.0,54,0.00,,,0.00,Wunderground v.1.15,2013-08-21 17:04:00,
2013-08-21 12:09:00,86.6,67.4,29.98,SSW,212,2.0,5.0,53,0.00,,,0.00,Wunderground v.1.15,2013-08-21 17:09:00,
2013-08-21 12:14:00,86.8,67.6,29.98,SSW,195,2.0,8.0,53,0.00,,,0.00,Wunderground v.1.15,2013-08-21 17:14:00,
2013-08-21 12:19:00,86.8,67.6,29.98,SSW,202,4.0,4.0,53,0.00,,,0.00,Wunderground v.1.15,2013-08-21 17:19:00,
2013-08-21 12:24:00,86.8,67.6,29.98,SE,145,4.0,7.0,53,0.00,,,0.00,Wunderground v.1.15,2013-08-21 17:24:00,
2013-08-21 12:29:00,87.1,67.3,29.97,ESE,122,2.0,3.0,52,0.00,,,0.00,Wunderground v.1.15,2013-08-21 17:29:00,
2013-08-21 12:34:00,87.4,67.6,29.98,SSE,148,3.0,7.0,52,0.00,,,0.00,Wunderground v.1.15,2013-08-21 17:34:00,
2013-08-21 12:39:00,87.6,68.4,29.98,SSE,159,1.0,1.0,53,0.00,,,0.00,Wunderground v.1.15,2013-08-21 17:39:00,
2013-08-21 12:44:00,88.0,69.3,29.97,South,191,1.0,6.0,54,0.00,,,0.00,Wunderground v.1.15,2013-08-21 17:44:00,
2013-08-21 12:49:00,88.2,67.8,29.97,SE,129,5.0,5.0,51,0.00,,,0.00,Wunderground v.1.15,2013-08-21 17:49:00,
2013-08-21 12:54:00,87.7,66.8,29.97,South,175,1.0,8.0,50,0.00,,,0.00,Wunderground v.1.15,2013-08-21 17:54:00,
2013-08-21 12:59:00,87.9,67.5,29.97,ESE,118,3.0,5.0,51,0.00,,,0.00,Wunderground v.1.15,2013-08-21 17:59:00,
2013-08-21 13:04:00,88.2,67.8,29.97,SSE,153,5.0,7.0,51,0.00,,,0.00,Wunderground v.1.15,2013-08-21 18:04:00,
2013-08-21 13:09:00,88.4,67.4,29.97,SW,229,2.0,5.0,50,0.00,,,0.00,Wunderground v.1.15,2013-08-21 18:09:00,
2013-08-21 13:14:00,88.5,66.3,29.97,SSE,166,2.0,7.0,48,0.00,,,0.00,Wunderground v.1.15,2013-08-21 18:14:00,
2013-08-21 13:19:00,88.9,67.9,29.97,ESE,115,1.0,3.0,50,0.00,,,0.00,Wunderground v.1.15,2013-08-21 18:19:00,
2013-08-21 13:24:00,89.3,67.6,29.96,SSE,148,1.0,4.0,49,0.00,,,0.00,Wunderground v.1.15,2013-08-21 18:24:00,
2013-08-21 13:29:00,89.5,67.8,29.96,SE,129,2.0,3.0,49,0.00,,,0.00,Wunderground v.1.15,2013-08-21 18:29:00,
2013-08-21 13:34:00,89.6,67.9,29.96,WSW,256,2.0,5.0,49,0.00,,,0.00,Wunderground v.1.15,2013-08-21 18:34:00,
2013-08-21 13:39:00,89.9,67.6,29.96,SSE,165,3.0,4.0,48,0.00,,,0.00,Wunderground v.1.15,2013-08-21 18:39:00,
2013-08-21 13:44:00,89.8,68.1,29.96,SSE,157,7.0,8.0,49,0.00,,,0.00,Wunderground v.1.15,2013-08-21 18:44:00,
2013-08-21 13:49:00,89.5,67.8,29.96,South,169,2.0,4.0,49,0.00,,,0.00,Wunderground v.1.15,2013-08-21 18:49:00,
2013-08-21 13:54:00,89.3,68.8,29.96,SSE,157,2.0,6.0,51,0.00,,,0.00,Wunderground v.1.15,2013-08-21 18:54:00,
2013-08-21 13:59:00,89.4,68.3,29.96,SSE,161,2.0,3.0,50,0.00,,,0.00,Wunderground v.1.15,2013-08-21 18:59:00,
2013-08-21 14:04:00,89.5,68.4,29.96,West,267,1.0,4.0,50,0.00,,,0.00,Wunderground v.1.15,2013-08-21 19:04:00,
2013-08-21 14:09:00,90.3,69.1,29.96,SE,146,6.0,6.0,50,0.00,,,0.00,Wunderground v.1.15,2013-08-21 19:09:00,
2013-08-21 14:14:00,90.4,68.6,29.95,South,183,1.0,8.0,49,0.00,,,0.00,Wunderground v.1.15,2013-08-21 19:14:00,
2013-08-21 14:19:00,90.8,69.0,29.96,SSE,150,3.0,4.0,49,0.00,,,0.00,Wunderground v.1.15,2013-08-21 19:19:00,
2013-08-21 14:24:00,90.8,68.4,29.95,West,276,1.0,5.0,48,0.00,,,0.00,Wunderground v.1.15,2013-08-21 19:24:00,
2013-08-21 14:29:00,91.1,69.3,29.95,SE,130,1.0,2.0,49,0.00,,,0.00,Wunderground v.1.15,2013-08-21 19:29:00,
2013-08-21 14:34:00,91.3,69.5,29.95,SW,235,3.0,5.0,49,0.00,,,0.00,Wunderground v.1.15,2013-08-21 19:34:00,
2013-08-21 14:39:00,91.3,69.5,29.95,SSE,153,3.0,3.0,49,0.00,,,0.00,Wunderground v.1.15,2013-08-21 19:39:00,
2013-08-21 14:44:00,91.2,70.0,29.95,ENE,70,1.0,8.0,50,0.00,,,0.00,Wunderground v.1.15,2013-08-21 19:44:00,
2013-08-21 14:49:00,91.4,69.6,29.95,WSW,238,3.0,4.0,49,0.00,,,0.00,Wunderground v.1.15,2013-08-21 19:49:00,
2013-08-21 14:54:00,91.2,68.8,29.95,South,182,4.0,9.0,48,0.00,,,0.00,Wunderground v.1.15,2013-08-21 19:54:00,
2013-08-21 14:59:00,90.8,69.0,29.95,SE,127,3.0,5.0,49,0.00,,,0.00,Wunderground v.1.15,2013-08-21 19:59:00,
2013-08-21 15:04:00,91.0,69.2,29.95,SSE,153,1.0,6.0,49,0.00,,,0.00,Wunderground v.1.15,2013-08-21 20:04:00,
2013-08-21 15:09:00,90.9,69.1,29.95,SSW,195,4.0,5.0,49,0.00,,,0.00,Wunderground v.1.15,2013-08-21 20:09:00,
2013-08-21 15:14:00,90.9,69.7,29.94,WSW,249,3.0,7.0,50,0.00,,,0.00,Wunderground v.1.15,2013-08-21 20:14:00,
2013-08-21 15:19:00,91.0,70.4,29.94,SSE,154,1.0,3.0,51,0.00,,,0.00,Wunderground v.1.15,2013-08-21 20:19:00,
2013-08-21 15:24:00,90.8,69.6,29.94,WSW,237,4.0,8.0,50,0.00,,,0.00,Wunderground v.1.15,2013-08-21 20:24:00,
2013-08-21 15:29:00,90.8,69.0,29.94,SSE,149,4.0,5.0,49,0.00,,,0.00,Wunderground v.1.15,2013-08-21 20:29:00,
2013-08-21 15:34:00,90.9,69.7,29.94,SE,146,2.0,9.0,50,0.00,,,0.00,Wunderground v.1.15,2013-08-21 20:34:00,
2013-08-21 15:39:00,91.3,69.5,29.94,WNW,290,6.0,8.0,49,0.00,,,0.00,Wunderground v.1.15,2013-08-21 20:39:00,
2013-08-21 15:44:00,91.3,70.1,29.94,SW,223,3.0,8.0,50,0.00,,,0.00,Wunderground v.1.15,2013-08-21 20:44:00,
2013-08-21 15:49:00,91.1,70.5,29.93,SW,219,4.0,4.0,51,0.00,,,0.00,Wunderground v.1.15,2013-08-21 20:49:00,
2013-08-21 15:54:00,90.9,69.7,29.93,SSW,209,5.0,9.0,50,0.00,,,0.00,Wunderground v.1.15,2013-08-21 20:54:00,
2013-08-21 15:59:00,91.0,70.4,29.93,SSE,159,2.0,3.0,51,0.00,,,0.00,Wunderground v.1.15,2013-08-21 20:59:00,
2013-08-21 16:04:00,91.3,70.1,29.93,SSE,154,2.0,7.0,50,0.00,,,0.00,Wunderground v.1.15,2013-08-21 21:04:00,
2013-08-21 16:09:00,91.1,69.3,29.93,South,171,2.0,6.0,49,0.00,,,0.00,Wunderground v.1.15,2013-08-21 21:09:00,
2013-08-21 16:14:00,91.0,69.8,29.93,SE,128,3.0,7.0,50,0.00,,,0.00,Wunderground v.1.15,2013-08-21 21:14:00,
2013-08-21 16:19:00,91.0,69.8,29.93,SE,133,3.0,3.0,50,0.00,,,0.00,Wunderground v.1.15,2013-08-21 21:19:00,
2013-08-21 16:24:00,91.0,69.8,29.93,SE,138,1.0,6.0,50,0.00,,,0.00,Wunderground v.1.15,2013-08-21 21:24:00,
2013-08-21 16:29:00,91.0,69.8,29.93,SSE,154,5.0,9.0,50,0.00,,,0.00,Wunderground v.1.15,2013-08-21 21:29:00,
2013-08-21 16:34:00,90.7,70.1,29.93,SSE,150,1.0,9.0,51,0.00,,,0.00,Wunderground v.1.15,2013-08-21 21:34:00,
2013-08-21 16:39:00,91.0,69.8,29.92,SSW,202,1.0,3.0,50,0.00,,,0.00,Wunderground v.1.15,2013-08-21 21:39:00,
2013-08-21 16:44:00,91.3,70.1,29.92,SSE,157,2.0,7.0,50,0.00,,,0.00,Wunderground v.1.15,2013-08-21 21:44:00,
2013-08-21 16:49:00,91.4,70.1,29.92,SW,234,1.0,3.0,50,0.00,,,0.00,Wunderground v.1.15,2013-08-21 21:49:00,
2013-08-21 16:54:00,91.6,69.7,29.92,SSE,148,4.0,5.0,49,0.00,,,0.00,Wunderground v.1.15,2013-08-21 21:54:00,
2013-08-21 16:59:00,91.2,70.0,29.92,SSE,163,2.0,3.0,50,0.00,,,0.00,Wunderground v.1.15,2013-08-21 21:59:00,
2013-08-21 17:04:00,90.9,69.7,29.92,SE,130,4.0,8.0,50,0.00,,,0.00,Wunderground v.1.15,2013-08-21 22:04:00,
2013-08-21 17:09:00,90.7,70.1,29.92,WSW,238,2.0,5.0,51,0.00,,,0.00,Wunderground v.1.15,2013-08-21 22:09:00,
2013-08-21 17:14:00,90.5,69.9,29.92,SE,124,7.0,11.0,51,0.00,,,0.00,Wunderground v.1.15,2013-08-21 22:14:00,
2013-08-21 17:19:00,90.4,70.4,29.92,ESE,103,1.0,3.0,52,0.00,,,0.00,Wunderground v.1.15,2013-08-21 22:19:00,
2013-08-21 17:24:00,90.5,69.9,29.92,ESE,121,3.0,6.0,51,0.00,,,0.00,Wunderground v.1.15,2013-08-21 22:24:00,
2013-08-21 17:29:00,90.4,69.8,29.92,SE,126,4.0,5.0,51,0.00,,,0.00,Wunderground v.1.15,2013-08-21 22:29:00,
2013-08-21 17:34:00,90.3,70.3,29.92,South,174,4.0,7.0,52,0.00,,,0.00,Wunderground v.1.15,2013-08-21 22:34:00,
2013-08-21 17:39:00,90.1,70.1,29.92,WSW,241,3.0,4.0,52,0.00,,,0.00,Wunderground v.1.15,2013-08-21 22:39:00,
2013-08-21 17:44:00,89.9,70.5,29.92,SE,135,3.0,8.0,53,0.00,,,0.00,Wunderground v.1.15,2013-08-21 22:44:00,
2013-08-21 17:49:00,90.1,70.7,29.92,WSW,252,1.0,3.0,53,0.00,,,0.00,Wunderground v.1.15,2013-08-21 22:49:00,
2013-08-21 17:54:00,90.3,70.3,29.92,SSE,160,1.0,7.0,52,0.00,,,0.00,Wunderground v.1.15,2013-08-21 22:54:00,
2013-08-21 17:59:00,90.1,70.7,29.92,NW,306,2.0,2.0,53,0.00,,,0.00,Wunderground v.1.15,2013-08-21 22:59:00,
2013-08-21 18:04:00,89.8,70.4,29.92,SE,136,5.0,5.0,53,0.00,,,0.00,Wunderground v.1.15,2013-08-21 23:04:00,
2013-08-21 18:09:00,89.4,70.6,29.92,SW,219,4.0,6.0,54,0.00,,,0.00,Wunderground v.1.15,2013-08-21 23:09:00,
2013-08-21 18:14:00,89.1,70.3,29.92,SSE,154,2.0,6.0,54,0.00,,,0.00,Wunderground v.1.15,2013-08-21 23:14:00,
2013-08-21 18:19:00,89.0,70.2,29.91,West,266,3.0,7.0,54,0.00,,,0.00,Wunderground v.1.15,2013-08-21 23:19:00,
2013-08-21 18:24:00,88.8,70.5,29.91,SE,134,1.0,7.0,55,0.00,,,0.00,Wunderground v.1.15,2013-08-21 23:24:00,
2013-08-21 18:29:00,88.7,70.5,29.91,SSE,149,4.0,5.0,55,0.00,,,0.00,Wunderground v.1.15,2013-08-21 23:29:00,
2013-08-21 18:34:00,88.6,70.4,29.91,South,177,1.0,5.0,55,0.00,,,0.00,Wunderground v.1.15,2013-08-21 23:34:00,
2013-08-21 18:39:00,88.4,70.2,29.91,SE,124,1.0,2.0,55,0.00,,,0.00,Wunderground v.1.15,2013-08-21 23:39:00,
2013-08-21 18:44:00,88.3,70.1,29.91,SE,142,2.0,7.0,55,0.00,,,0.00,Wunderground v.1.15,2013-08-21 23:44:00,
2013-08-21 18:49:00,88.2,70.5,29.91,South,171,1.0,2.0,56,0.00,,,0.00,Wunderground v.1.15,2013-08-21 23:49:00,
2013-08-21 18:54:00,88.1,70.4,29.91,SE,142,1.0,6.0,56,0.00,,,0.00,Wunderground v.1.15,2013-08-21 23:54:00,
2013-08-21 18:59:00,87.9,70.2,29.91,SE,126,2.0,4.0,56,0.00,,,0.00,Wunderground v.1.15,2013-08-21 23:59:00,
2013-08-21 19:04:00,87.8,70.7,29.91,SSE,157,1.0,5.0,57,0.00,,,0.00,Wunderground v.1.15,2013-08-22 00:04:00,
2013-08-21 19:09:00,87.6,70.5,29.91,South,184,3.0,4.0,57,0.00,,,0.00,Wunderground v.1.15,2013-08-22 00:09:00,
2013-08-21 19:14:00,87.5,70.4,29.91,SE,132,1.0,7.0,57,0.00,,,0.00,Wunderground v.1.15,2013-08-22 00:14:00,
2013-08-21 19:19:00,87.3,70.7,29.91,ESE,115,2.0,3.0,58,0.00,,,0.00,Wunderground v.1.15,2013-08-22 00:19:00,
2013-08-21 19:24:00,87.2,70.6,29.91,ESE,115,5.0,5.0,58,0.00,,,0.00,Wunderground v.1.15,2013-08-22 00:24:00,
2013-08-21 19:29:00,87.0,70.9,29.91,SSE,150,3.0,4.0,59,0.00,,,0.00,Wunderground v.1.15,2013-08-22 00:29:00,
2013-08-21 19:34:00,86.9,70.8,29.91,SE,132,1.0,5.0,59,0.00,,,0.00,Wunderground v.1.15,2013-08-22 00:34:00,
2013-08-21 19:39:00,86.7,71.2,29.90,South,173,1.0,2.0,60,0.00,,,0.00,Wunderground v.1.15,2013-08-22 00:39:00,
2013-08-21 19:44:00,86.5,71.0,29.91,SSE,165,2.0,4.0,60,0.00,,,0.00,Wunderground v.1.15,2013-08-22 00:44:00,
2013-08-21 19:49:00,86.3,71.3,29.91,SSE,148,1.0,2.0,61,0.00,,,0.00,Wunderground v.1.15,2013-08-22 00:49:00,
2013-08-21 19:54:00,86.0,71.0,29.91,SE,137,1.0,3.0,61,0.00,,,0.00,Wunderground v.1.15,2013-08-22 00:54:00,
2013-08-21 19:59:00,85.7,71.2,29.91,SW,225,0.0,2.0,62,0.00,,,0.00,Wunderground v.1.15,2013-08-22 00:59:00,
2013-08-21 20:04:00,85.5,70.5,29.91,SSE,157,3.0,3.0,61,0.00,,,0.00,Wunderground v.1.15,2013-08-22 01:04:00,
2013-08-21 20:09:00,85.3,70.8,29.91,West,266,3.0,5.0,62,0.00,,,0.00,Wunderground v.1.15,2013-08-22 01:09:00,
2013-08-21 20:14:00,85.0,70.5,29.91,South,188,1.0,5.0,62,0.00,,,0.00,Wunderground v.1.15,2013-08-22 01:14:00,
2013-08-21 20:19:00,84.8,70.8,29.91,SW,229,1.0,2.0,63,0.00,,,0.00,Wunderground v.1.15,2013-08-22 01:19:00,
2013-08-21 20:24:00,84.6,70.6,29.91,ESE,119,1.0,4.0,63,0.00,,,0.00,Wunderground v.1.15,2013-08-22 01:24:00,
2013-08-21 20:29:00,84.3,70.3,29.91,SE,138,1.0,3.0,63,0.00,,,0.00,Wunderground v.1.15,2013-08-22 01:29:00,
2013-08-21 20:34:00,84.1,70.6,29.91,SE,129,2.0,3.0,64,0.00,,,0.00,Wunderground v.1.15,2013-08-22 01:34:00,
2013-08-21 20:39:00,83.9,70.4,29.92,SSE,149,2.0,3.0,64,0.00,,,0.00,Wunderground v.1.15,2013-08-22 01:39:00,
2013-08-21 20:44:00,83.7,70.7,29.92,SE,139,2.0,3.0,65,0.00,,,0.00,Wunderground v.1.15,2013-08-22 01:44:00,
2013-08-21 20:49:00,83.5,70.5,29.92,SSE,148,1.0,3.0,65,0.00,,,0.00,Wunderground v.1.15,2013-08-22 01:49:00,
2013-08-21 20:54:00,83.3,70.8,29.92,East,101,2.0,4.0,66,0.00,,,0.00,Wunderground v.1.15,2013-08-22 01:54:00,
2013-08-21 20:59:00,83.1,70.6,29.92,South,171,2.0,3.0,66,0.00,,,0.00,Wunderground v.1.15,2013-08-22 01:59:00,
2013-08-21 21:04:00,82.9,70.4,29.92,SSW,192,1.0,4.0,66,0.00,,,0.00,Wunderground v.1.15,2013-08-22 02:04:00,
2013-08-21 21:09:00,82.7,70.6,29.92,SE,132,1.0,2.0,67,0.00,,,0.00,Wunderground v.1.15,2013-08-22 02:09:00,
2013-08-21 21:14:00,82.5,70.4,29.92,South,175,2.0,6.0,67,0.00,,,0.00,Wunderground v.1.15,2013-08-22 02:14:00,
2013-08-21 21:19:00,82.3,70.2,29.92,WSW,258,1.0,2.0,67,0.00,,,0.00,Wunderground v.1.15,2013-08-22 02:19:00,
2013-08-21 21:24:00,82.2,70.6,29.92,SSE,168,2.0,4.0,68,0.00,,,0.00,Wunderground v.1.15,2013-08-22 02:24:00,
2013-08-21 21:29:00,82.0,70.4,29.92,WSW,246,1.0,2.0,68,0.00,,,0.00,Wunderground v.1.15,2013-08-22 02:29:00,
2013-08-21 21:34:00,81.7,70.1,29.92,SE,132,2.0,3.0,68,0.00,,,0.00,Wunderground v.1.15,2013-08-22 02:34:00,
2013-08-21 21:39:00,81.5,70.3,29.92,SE,126,1.0,2.0,69,0.00,,,0.00,Wunderground v.1.15,2013-08-22 02:39:00,
2013-08-21 21:44:00,81.3,70.2,29.92,South,175,1.0,3.0,69,0.00,,,0.00,Wunderground v.1.15,2013-08-22 02:44:00,
2013-08-21 21:49:00,81.0,70.3,29.92,ESE,118,1.0,2.0,70,0.00,,,0.00,Wunderground v.1.15,2013-08-22 02:49:00,
2013-08-21 21:54:00,80.8,70.1,29.92,SSE,164,3.0,4.0,70,0.00,,,0.00,Wunderground v.1.15,2013-08-22 02:54:00,
2013-08-21 21:59:00,80.6,70.3,29.92,South,173,1.0,4.0,71,0.00,,,0.00,Wunderground v.1.15,2013-08-22 02:59:00,
2013-08-21 22:04:00,80.3,70.0,29.92,SSW,201,0.0,4.0,71,0.00,,,0.00,Wunderground v.1.15,2013-08-22 03:04:00,
2013-08-21 22:09:00,80.1,70.3,29.92,SSE,163,1.0,2.0,72,0.00,,,0.00,Wunderground v.1.15,2013-08-22 03:09:00,
2013-08-21 22:14:00,79.9,70.1,29.92,SW,232,2.0,3.0,72,0.00,,,0.00,Wunderground v.1.15,2013-08-22 03:14:00,
2013-08-21 22:19:00,79.7,69.9,29.93,SE,126,2.0,2.0,72,0.00,,,0.00,Wunderground v.1.15,2013-08-22 03:19:00,
2013-08-21 22:24:00,79.6,70.2,29.93,South,170,0.0,4.0,73,0.00,,,0.00,Wunderground v.1.15,2013-08-22 03:24:00,
2013-08-21 22:29:00,79.4,70.0,29.93,SSW,211,1.0,1.0,73,0.00,,,0.00,Wunderground v.1.15,2013-08-22 03:29:00,
2013-08-21 22:34:00,79.2,69.8,29.93,South,172,1.0,2.0,73,0.00,,,0.00,Wunderground v.1.15,2013-08-22 03:34:00,
2013-08-21 22:39:00,78.9,69.9,29.93,SSW,198,0.0,1.0,74,0.00,,,0.00,Wunderground v.1.15,2013-08-22 03:39:00,
2013-08-21 22:44:00,78.6,70.0,29.93,SSW,199,1.0,2.0,75,0.00,,,0.00,Wunderground v.1.15,2013-08-22 03:44:00,
2013-08-21 22:49:00,78.3,69.7,29.94,SE,125,1.0,1.0,75,0.00,,,0.00,Wunderground v.1.15,2013-08-22 03:49:00,
2013-08-21 22:54:00,78.0,69.8,29.94,SE,125,0.0,2.0,76,0.00,,,0.00,Wunderground v.1.15,2013-08-22 03:54:00,
2013-08-21 22:59:00,77.7,69.5,29.93,SE,138,4.0,4.0,76,0.00,,,0.00,Wunderground v.1.15,2013-08-22 03:59:00,
2013-08-21 23:01:00,77.6,69.8,29.93,South,172,2.0,4.0,77,0.00,,,0.00,Wunderground v.1.15,2013-08-22 04:01:00,
2013-08-21 23:06:00,77.4,69.6,29.94,South,186,1.0,4.0,77,0.00,,,0.00,Wunderground v.1.15,2013-08-22 04:06:00,
2013-08-21 23:11:00,77.3,69.5,29.94,SE,130,2.0,3.0,77,0.00,,,0.00,Wunderground v.1.15,2013-08-22 04:11:00,
2013-08-21 23:16:00,77.2,69.4,29.93,SE,130,0.0,3.0,77,0.00,,,0.00,Wunderground v.1.15,2013-08-22 04:16:00,
2013-08-21 23:21:00,77.1,69.3,29.93,South,184,2.0,2.0,77,0.00,,,0.00,Wunderground v.1.15,2013-08-22 04:21:00,
2013-08-21 23:26:00,76.9,69.5,29.94,SSE,157,1.0,3.0,78,0.00,,,0.00,Wunderground v.1.15,2013-08-22 04:26:00,
2013-08-21 23:31:00,76.8,69.4,29.93,SSE,158,1.0,2.0,78,0.00,,,0.00,Wunderground v.1.15,2013-08-22 04:31:00,
2013-08-21 23:36:00,76.7,69.3,29.93,South,178,1.0,3.0,78,0.00,,,0.00,Wunderground v.1.15,2013-08-22 04:36:00,
2013-08-21 23:41:00,76.7,69.3,29.93,SSW,206,1.0,4.0,78,0.00,,,0.00,Wunderground v.1.15,2013-08-22 04:41:00,
2013-08-21 23:46:00,76.7,69.3,29.94,South,173,1.0,4.0,78,0.00,,,0.00,Wunderground v.1.15,2013-08-22 04:46:00,
2013-08-21 23:51:00,76.7,69.3,29.94,South,170,1.0,3.0,78,0.00,,,0.00,Wunderground v.1.15,2013-08-22 04:51:00,
2013-08-21 23:56:00,76.6,69.2,29.94,SW,236,3.0,3.0,78,0.00,,,0.00,Wunderground v.1.15,2013-08-22 04:56:00,